User: anonymous   Login
Location: Newark
(54.7700°N, 18.4827°E)
Time: 23:45:19
(UTC+00:00)
Language:

N. Korean satellite - Orbit

View from above orbital plane
View from above orbital plane
View from above satellite
View from above satellite

Ground track
Ground track

The orbit data is extracted from the following two-line orbital elements,

1 39026U 12072A   20275.54923450 +.00001816 +00000-0 +66160-4 0  9999
2 39026 097.2292 269.2568 0035699 224.5968 135.2399 15.28893168433451
Epoch (UTC): 01 October 2020 13:10:53
Eccentricity: 0.0035699
inclination: 97.2292°
perigee height: 454 km
apogee height: 503 km
right ascension of ascending node: 269.2568°
argument of perigee: 224.5968°
revolutions per day: 15.28893168
mean anomaly at epoch: 135.2399°
orbit number at epoch: 43345

The dashed part of the orbit path shows where the satellite is in the earth's shadow,  

DLR